THORAD AGENA D DEB, 4613

Orbit data source: Space-Track

THORAD AGENA D DEB, 4613 is space debris in SSO originally from a launch on Wed, 08 Apr 1970 UTC launched from the Air Force Western Test Range (AFWTR). Debris objects in space refer to the collection of defunct objects orbiting the Earth. Examples of debris include non-operational satellites, rocket bodies, and fragments generated from explosions, collisions, or faulty payload assembly.

Loading next visibility...
Identifier
4613, 1970-025R
Orbit
SSO
Country
Flag of USUS
Related business
Manufacturer
Unknown
Mission
Spacecraft
Bus & Motor
Unknown
Mass
Unknown
Launch date (UTC)
1970-04-08 (56 years ago)
Launch vehicle
Unknown
Launch site
Air Force Western Test Range (AFWTR)
Object type
Payload
Rocket body
Debris
Shape & HBR
Unknown shape, 0.1 m
Radar Cross Section
Medium (>0.1 m² and <1 m²)

Expand to show TLE details & history
Last TLE update: 11 hours ago

TLE from 11 hours ago
0 THORAD AGENA D DEB
1 04613U 70025R   26208.56567416  .00001471  00000-0  60875-3 0  9998
2 04613  98.5795 242.5425 0086462  53.2949 307.6135 14.26106728866867
Epoch: 2026-07-27T13:34Z
TLE epoch observation values (Epoch: 2026-07-27T13:34:34.247Z)
Latitude
-0.00005°
Longitude
93.65239°
Altitude
770.129 km
Speed
7.489 km/s
True Right ascension
16h 10m 10s
True Declination
0° 00' 00"
Sunlit
Object was in daylight at epoch
Visualization orbit readout
Latitude
Unknown
Longitude
Unknown
Altitude
Unknown
Speed
Unknown
Apparent Right ascension
Unknown
Apparent Declination
Unknown
Sunlit
N/A
Visualization observer readout
Local Sidereal Time
14:24:03
Azimuth
Unknown
Elevation
Unknown
Doppler factor
Unknown
Orbital elements
Apogee altitude
863.998 km
Perigee altitude
739.838 km
Semi-major axis
7,180.055 km
Eccentricity
0.00865
Inclination
98.5795°
RAAN
242.5425°
Arg. of periapsis
53.2949°
True anomaly
306.82347°
Mean anomaly
307.6135°
Eccentric anomaly
307.21901°
Mean motion
3.5674 °/min
Orbital period
100.91 mins
BSTAR
0.00060875

Documentation

Showing up to 5 results
|